Tracking 19431 objects as of 18-Dec-2018
HD Live streaming from Space Station
objects crossing your sky now

GONETS M 04

Track GONETS M 04 now!
10-day predictions
GONETS M 04 is classified as:


NORAD ID: 38736
Int'l Code: 2012-041D
Perigee: 1,479.4 km
Apogee: 1,515.9 km
Inclination: 82.5 °
Period: 115.8 minutes
Semi major axis: 7868 km
RCS: 1.6842 m2 (large)
Launch date: July 28, 2012
Source: Commonwealth of Independent States (former USSR) (CIS)
Launch site: PLESETSK MISSILE AND SPACE COMPLEX (PKMTR)

Uplink (MHz):
Downlink (MHz): 435.365
Beacon (MHz):
Mode:
Call sign:
Status: Inactive


MIR is a scientific microsatellite.
aabbcc
Your satellite tracking list
Your tracking list is empty




NASA's NSSDC Master Catalog

Two Line Element Set (TLE):
1 38736U 12041D   18352.73891692  .00000005  00000-0 -31605-4 0  9994
2 38736  82.4790 340.9932 0023213 272.7654  87.0770 12.43805653290055
Source of the keplerian elements: AFSPC